Weather in Yerema

Russia / Irkutsk Oblast     60°21′51″N   107°45′46″E
temp.,
°C
wind,
m/s
gust,
m/s
humid.,
%
clouds,
%
prec.,
mm/h
press.,
hPa
HPBL,
m
17 june, thu
thu1723:00+13n226374 0.0 101112
02:00+10nw11755 0.0 101210
05:00+11nw117228 0.0 101215
08:00+16nne235454 0.0 1012419
11:00+21nne2436100 0.0 10112195
14:00+20n2344100 0.0 10101156
17:00+23nnw233323 0.0 10092484
20:00+19n365215 0.0 1009257
18 june, fri
fri1823:00+13n11695 0.0 101011
02:00+11nnw118023 0.0 101011
05:00+11n2279100 0.0 100952
08:00+18nne235446 0.0 1008420
11:00+23nne34378 0.0 10071864
14:00+23nne343695 0.0 10051837
17:00+21se354494 0.0 10051183
20:00+17e5106898 0.4 1006633
19 june, sat
sat1923:00+14w1186100 0.3 100715
02:00+13ene1187100 0.3 100620
05:00+13ne1181100 0.0 100626
08:00+17ene2462100 0.0 1006418
11:00+22e464396 0.0 10052229
14:00+23ese243896 0.0 10042238
17:00+22wsw224899 0.0 1003381
20:00+20wnw1257100 0.0 100352
20 june, sun
sun2023:00+18nw226478 0.0 100450
02:00+16nne117262 0.1 100413
05:00+14ene118699 1.1 100411
08:00+18e138198 2.6 1005239
11:00+23ese2353100 0.0 1004857
14:00+25ssw3344100 0.0 10031499
17:00+19nne257596 0.9 1005302
20:00+16nne1192100 2.3 100644
21 june, mon
mon2123:00+14se11944 0.0 100712
02:00+13ese11956 0.0 100813
05:00+13se119274 0.0 100811
08:00+18se12755 0.0 1008221
11:00+25e24405 0.0 10071606
14:00+21nne146070 0.1 1006107
17:00+25w144512 0.3 10061311
20:00+20n24746 0.3 1006199